(516) Amherstia
ephemeris date magn radius delta ra dec elong phase
Today24 Jun 202614.43.156 AU3.405 AU01h21m+16°46'67.3°17.3°
Opposition18 Oct 202613.23.329 AU2.358 AU01h07m+23°48'164.6°4.5°
(516) Amherstia - 2026-06-24
astro.vanbuitenen.nl


 
-1 year
-1 month
-1 day
Now
+1 day
+1 month
+1 year

The interactive orbit chart above shows the body's path through the solar system and its position at the given date. Green and blue lines are shown perpendicular to the ecliptic plane: Green if the path is above the ecliptic plane, blue if it is below. (Left-click and drag to rotate the view; Right-click and drag to move the view; Use scroll wheel to zoom in our out.)

The orbital elements of Amherstia are:

            e (Eccentricity)                : 0.2757442
            a (Semimajor axis)              : 2.6773311
            i (Inclination)                 : 12.95537
            Ω (Longitude of ascending node) : 328.71226
            ω (Argument of perihelion)      : 258.02360
            M (Mean anomaly)                : 115.00505
            Epoch                           : 2026 Jun 09

            L (Longitude of perihelion)     : 46.43241
            B (Latitude of perihelion)      : -12.66863
            P (Orbital period in years)     : 4.38            
        

The light curve chart below shows the estimated development of the minor planet's magnitude.


The all-sky chart below shows the path of the minor planet over the same period as the light curve. The current position is marked yellow.





The following chart shows the path of the minor planet in the next few days. The field of view is optimized for (~10x50) binoculars and finderscopes.




Ephemerides:
Date       Time       RA (2000)    DEC (2000)    delta   radius  elong  phase   PA    magn
2026-06-24 00:00 UT   01 21 18.2   +16 46 33     3.405    3.156   67.3   17.3   251   14.4 
2026-06-24 14:07 UT   01 21 47.7   +16 51 30     3.399    3.157   67.7   17.3   251   14.4 
2026-06-25 00:00 UT   01 22 08.2   +16 54 57     3.394    3.158   68.0   17.4   251   14.4 
2026-06-26 00:00 UT   01 22 57.6   +17 03 20     3.383    3.160   68.7   17.4   251   14.4 
2026-06-27 00:00 UT   01 23 46.3   +17 11 40     3.372    3.161   69.4   17.5   251   14.4 
2026-06-28 00:00 UT   01 24 34.4   +17 19 57     3.360    3.163   70.2   17.6   251   14.4 
2026-06-29 00:00 UT   01 25 21.8   +17 28 12     3.349    3.165   70.9   17.7   251   14.4 
2026-06-30 00:00 UT   01 26 08.6   +17 36 24     3.337    3.167   71.6   17.7   251   14.4 
2026-07-01 00:00 UT   01 26 54.6   +17 44 33     3.326    3.169   72.3   17.8   251   14.4 
2026-07-02 00:00 UT   01 27 40.0   +17 52 40     3.314    3.171   73.1   17.9   251   14.4 
2026-07-03 00:00 UT   01 28 24.8   +18 00 44     3.302    3.172   73.8   17.9   251   14.4 
2026-07-04 00:00 UT   01 29 08.8   +18 08 46     3.291    3.174   74.5   18.0   250   14.4 
2026-07-05 00:00 UT   01 29 52.0   +18 16 45     3.279    3.176   75.3   18.0   250   14.4 
2026-07-06 00:00 UT   01 30 34.6   +18 24 41     3.267    3.178   76.0   18.1   250   14.4 
2026-07-07 00:00 UT   01 31 16.4   +18 32 34     3.255    3.180   76.7   18.1   250   14.4 
2026-07-08 00:00 UT   01 31 57.4   +18 40 25     3.243    3.181   77.5   18.2   250   14.4 
2026-07-09 00:00 UT   01 32 37.7   +18 48 12     3.231    3.183   78.2   18.2   250   14.4 
2026-07-10 00:00 UT   01 33 17.1   +18 55 57     3.219    3.185   79.0   18.3   250   14.3 
2026-07-11 00:00 UT   01 33 55.8   +19 03 38     3.207    3.187   79.7   18.3   250   14.3 
2026-07-12 00:00 UT   01 34 33.7   +19 11 17     3.194    3.189   80.5   18.3   250   14.3 
2026-07-13 00:00 UT   01 35 10.7   +19 18 52     3.182    3.190   81.3   18.4   250   14.3 
2026-07-14 00:00 UT   01 35 46.9   +19 26 25     3.170    3.192   82.0   18.4   250   14.3 
2026-07-15 00:00 UT   01 36 22.2   +19 33 54     3.158    3.194   82.8   18.4   250   14.3 
2026-07-16 00:00 UT   01 36 56.6   +19 41 20     3.145    3.196   83.6   18.4   249   14.3 
2026-07-17 00:00 UT   01 37 30.2   +19 48 42     3.133    3.197   84.4   18.4   249   14.3 
2026-07-18 00:00 UT   01 38 02.8   +19 56 01     3.121    3.199   85.1   18.5   249   14.3 
2026-07-19 00:00 UT   01 38 34.6   +20 03 17     3.108    3.201   85.9   18.5   249   14.3 
2026-07-20 00:00 UT   01 39 05.4   +20 10 29     3.096    3.202   86.7   18.5   249   14.3 
2026-07-21 00:00 UT   01 39 35.3   +20 17 38     3.084    3.204   87.5   18.5   249   14.3 
2026-07-22 00:00 UT   01 40 04.2   +20 24 44     3.071    3.206   88.3   18.5   249   14.3 
2026-07-23 00:00 UT   01 40 32.2   +20 31 45     3.059    3.207   89.1   18.5   249   14.3 
2026-07-24 00:00 UT   01 40 59.2   +20 38 44     3.046    3.209   89.9   18.5   249   14.3 


    Terminology:
            
    delta:  distance between minor planet and earth in AU
    radius: distance between minor planet and sun in AU
    magn:   magnitude (brightness) estimate    
    ra:     right ascension in hours (24h = 360deg)
    dec:    declination in degrees
    elong:  elongation in degrees (angle sun-earth-minor planet)    
    phase:  phase angle in degrees (angle sun-minor planet-earth)        
    AU:     Astronomical Unit (mean distance between earth and sun: 149597870.7 km
    

Orbital elements provided by the MPC (Minor Planet Center).
Calculations by a modified version of AAPlus, a C# implementation of the AA+ project by PJ Naughter from the algorithms presented in the book "Astronomical Algorithms" by Jean Meeus.
NGC2000 dso catalog and star labels from VizieR as provided by the Strasbourg astronomical Data Center.
Tycho2 catalog from the ESO archive.